Regional Weather Roundup
Issued by NWS

Home | Current Version | Previous Version | Text Only | Print | Product List | Glossary Off
Versions: 1 2 3 4 5 6 7 8 9 10 11 12 13 14 15 16 17 18 19 20 21 22 23 24 25 26 27 28 29 30 31 32 33 34 35 36 37 38 39 40 41 42 43 44 45 46 47 48 49 50

204
ASUS43 KOAX 250410
RWRNE

WEATHER ROUNDUP FOR NEBRASKA
NATIONAL WEATHER SERVICE OMAHA NE
1100 PM CDT SUN JUL 24 2016

NOTES: SATELLITE DATA IS BEING USED TO AUGMENT CLOUD COVER ABOVE
       12000 FEET.
       "FAIR" INDICATES FEW OR NO CLOUDS BELOW 12,000 FEET WITH NO
       SIGNIFICANT WEATHER AND/OR OBSTRUCTIONS TO VISIBILITY.

  * THESE STATIONS DO NOT REPORT WEATHER SUCH AS RAIN...SNOW OR FOG.

NEZ001>004-019>022-054>056-250500-
NEBRASKA PANHANDLE

CITY           SKY/WX    TMP DP  RH WIND       PRES   REMARKS
SCOTTSBLUFF    CLEAR     66  56  70 SE6       30.18R
ALLIANCE       CLEAR     67  55  65 SE10      30.17R
CHADRON        CLEAR     76  51  41 SE15      30.11R
KIMBALL        CLEAR     59  57  92 S7        30.23R
SIDNEY         CLOUDY    62  55  77 SE5       30.22R
$$

NEZ057>060-069>072-079>082-250500-
SOUTHWEST NEBRASKA

CITY           SKY/WX    TMP DP  RH WIND       PRES   REMARKS
NORTH PLATTE   CLOUDY    70  63  78 NE7       30.15R
IMPERIAL       CLOUDY    71  58  63 SW14G28   30.15F
LEXINGTON      CLOUDY    70  64  81 NE3       30.14R
MCCOOK         CLOUDY    73  62  68 CALM      30.15R
OGALLALA       CLOUDY    74  59  59 E13       30.15S
$$

NEZ005>010-023>029-035>040-094-250500-
NORTH CENTRAL NEBRASKA

CITY           SKY/WX    TMP DP  RH WIND       PRES   REMARKS
VALENTINE      PTCLDY    71  55  56 E8        30.13R
AINSWORTH      PTCLDY    67  60  78 SE6       30.15S
BROKEN BOW     PTCLDY    66  64  93 CALM      30.14R
O`NEILL        PTCLDY    72  58  62 SE3       30.14S
ORD            MOCLDY    68  63  84 CALM      30.11R
THEDFORD       CLOUDY    73  60  63 S7        30.16S
$$

NEZ041-046>049-061>064-073>077-083>087-250500-
SOUTH CENTRAL NEBRASKA

CITY           SKY/WX    TMP DP  RH WIND       PRES   REMARKS
GRAND ISLAND   MOCLDY    71  63  75 NE3       30.11R
AURORA         PTCLDY    69  66  89 CALM      30.10R
HASTINGS       CLOUDY    72  66  81 NE5       30.12R
HEBRON         PTCLDY    69  64  86 CALM      30.07R
HOLDREGE       CLOUDY    70  65  83 E6        30.12R
KEARNEY *      MOCLDY    70  63  78 E6        30.13R
YORK           MOCLDY    68  64  88 N3        30.10R
$$

NEZ011>018-030>034-042>045-250500-
NORTHEAST NEBRASKA

CITY           SKY/WX    TMP DP  RH WIND       PRES   REMARKS
NORFOLK        PTCLDY    67  61  81 NW5       30.11R
ALBION         MOCLDY    69  59  72 N6        30.12R
BLAIR          CLEAR     72  67  82 N3        30.06S
FREMONT        CLEAR     72  64  76 CALM      30.08R
TEKAMAH        CLEAR     70  65  84 N8        30.06R
WAYNE          CLOUDY    66  64  91 CALM      30.10F
$$

NEZ050>053-065>068-078-088>093-250500-
SOUTHEAST NEBRASKA

CITY           SKY/WX    TMP DP  RH WIND       PRES   REMARKS
LINCOLN        CLEAR     70  66  87 CALM      30.07R
OMAHA EPPLEY   PTCLDY    72  67  84 N7        30.04R
BEATRICE       CLEAR     67  65  91 N3        30.06R
FALLS CITY     CLEAR     71  68  90 NW5       30.02R
NEBRASKA CITY  CLEAR     69  66  89 N3        30.04S
PLATTSMOUTH    CLEAR     69  65  87 CALM      30.04S
$$

NEZ044-045-051>053-067-250500-
OMAHA AREA

CITY           SKY/WX    TMP DP  RH WIND       PRES   REMARKS
OMAHA EPPLEY   PTCLDY    72  67  84 N7        30.04R
BLAIR          CLEAR     72  67  82 N3        30.06S
FREMONT        CLEAR     72  64  76 CALM      30.08R
MILLARD        CLEAR     77  67  71 CALM      30.04R
OFFUTT AFB     CLEAR     71  66  84 N6        30.03R
PLATTSMOUTH    CLEAR     69  65  87 CALM      30.04S
WAHOO          FAIR      70  65  84 N6        30.07R
$$




USA.gov is the U.S. government's official web portal to all federal, state and local government web resources and services.